Simultaneous Nadir Overpasses (SNOs) Predictions

Prediction of SNOs between GOES-17 and METOP-C Satellite Orbit:

Table of predicted SNOs for the next 14.0 days since TLE Epoch: 1/18/2025
Index Date Time (GOES-17) GOES-17 Lat,Lon METOP-C Lat,Lon Distance(km) Time Diff (sec)
1 01/18/2025 04:15:55 -0.01,-104.67 0.69,-101.63 347.02 80
2 01/19/2025 16:34:47 0.00,-104.69 0.35,-106.19 170.59 80
3 01/20/2025 16:16:49 0.01,-104.70 -0.79,-101.20 398.91 80
4 01/22/2025 04:35:49 -0.00,-104.68 -0.27,-105.79 126.74 80
5 01/23/2025 04:12:30 -0.01,-104.68 0.87,-100.81 442.06 80
6 01/24/2025 16:31:23 0.00,-104.70 0.14,-105.37 76.38 80
7 01/25/2025 16:13:23 0.01,-104.70 -0.95,-100.37 492.86 80
8 01/27/2025 04:32:25 -0.00,-104.69 -0.05,-104.98 32.75 80
9 01/29/2025 16:30:36 0.01,-104.69 0.00,-104.54 17.10 80
